Погода в Чувашах

Россия / Новосибирская область     56°23′51″N   78°48′52″E
темп.,
°C
ветер,
м/с
пор.,
м/с
влажн.,
%
обл.,
%
осадки,
мм/ч
давл.,
гПа
погр.,
м
17 августа, ср
ср1701:00+10зюз2797100 0.5 1011271
04:00+10зюз3899100 0.9 1009507
07:00+9зсз41098100 1.3 1009531
10:00+9зсз4896100 0.1 1009622
13:00+9зсз489597 0.4 1010616
16:00+11сз577483 0.4 10101080
19:00+9сз3784100 0.6 1010623
22:00+8з2698100 1.3 1010396
18 августа, чт
чт1801:00+8ссз2798100 1.9 1010590
04:00+8с4898100 0.6 1010498
07:00+9с3899100 0.9 1011534
10:00+8с4898100 0.3 1013557
13:00+8с4996100 0.4 1014669
16:00+10с5987100 0.3 1015944
19:00+9с41187100 0.8 1016791
22:00+9ссз51177100 0.1 1016694
19 августа, пт
пт1901:00+8ссз41182100 0.3 1016548
04:00+7ссз41080100 0.1 1016402
07:00+7ссз3983100 0.1 1016340
10:00+10ссз3674100 0.0 1017434
13:00+14сз566740 0.1 1016981
16:00+13ссз468277 0.9 1016652
19:00+15ссз34745 1.1 1016783
22:00+10сз23968 0.4 101849
20 августа, сб
сб2001:00+8ссз2598100 0.4 1018109
04:00+7ссз2697100 0.0 1019115
07:00+6ссз279647 0.0 1020128
10:00+12ссз35740 0.0 1020317
13:00+17ссз354551 0.0 10201427
16:00+18сз4544100 0.0 10191737
19:00+17сз3554100 0.0 1018981
22:00+11з257781 0.0 101893
21 августа, вс
вс2101:00+8з258461 0.0 101784
04:00+8зюз3987100 0.0 1015184
07:00+10з3885100 0.1 1014316
10:00+10з2799100 0.6 1014356
13:00+13зсз2774100 0.0 1019630
16:00+10зсз3697100 0.3 1019430
19:00+11сз2699100 0.5 1019315
22:00+11сз239876 0.0 1019104